#timestamp,LO_Frequency,Hit,StdDev 
1542258015.5,286047002.4,N
1542258035.4,286047003.7,N
1542258055.2,286047003.4,N
1542258075.1,286047005.5,Y
1542258076.0,286047005.5,P
1542258095.8,286047001.7,N
1542258115.6,286047002.3,N
1542258135.5,286047000.3,N
1542258155.3,286046999.9,N
1542258175.1,286047000.6,N
1542258195.9,286047000.9,N
1542258215.7,286046999.4,N
1542258235.6,286047001.1,N
1542258255.4,286047000.1,N
1542258275.2,286047002.8,N
1542258295.1,286047000.1,N
1542258296.0,286047000.1,N
1542258315.8,286047000.0,N
1542258335.7,286046998.7,N
1542258355.5,286047004.1,N
1542258375.3,286047001.8,N
1542258395.2,286047004.0,N
1542258415.9,286047001.4,N
1542258435.7,286047001.8,N
1542258455.6,286047004.0,N
1542258475.4,286047004.0,N
1542258495.3,286047003.7,N
1542258515.1,286047001.4,N
1542258516.0,286047001.4,N
1542258535.8,286047002.0,N
1542258555.7,286047002.2,N
1542258575.5,286047002.5,N
1542258595.3,286047000.2,N
1542258615.2,286047000.3,N
1542258635.0,286047002.6,N
1542258635.9,286047002.6,N
1542258655.8,286047000.4,N
1542258675.6,286047000.6,N
1542258695.4,286047000.5,N
1542258715.3,286047002.6,N
1542258735.1,286047000.6,N
1542258755.9,286047000.9,N
1542258775.7,286047002.1,N
1542258795.5,286046999.7,N
1542258815.4,286047000.0,N
1542258835.2,286047000.6,N
1542258855.0,286047001.1,N
1542258855.9,286047001.1,N
1542258875.8,286047002.8,N
1542258895.6,286047002.1,N
1542258915.5,286047001.6,N
1542258935.3,286047003.2,N
1542258955.1,286047004.1,Y
1542258975.9,286046998.5,P
1542258995.7,286046999.1,N
1542259015.5,286046998.4,N
1542259035.4,286046998.5,N
1542259055.2,286047000.7,N
1542259075.1,286046999.8,N
1542259076.0,286046999.8,N
1542259095.8,286046998.5,N
1542259115.6,286046998.7,N
1542259135.5,286046998.9,N
1542259155.3,286046999.2,N
1542259175.2,286046999.5,N
1542259195.9,286046998.2,N
1542259215.7,286046997.0,Y
1542259235.6,286046998.1,P
1542259255.4,286046999.3,N
1542259275.2,286047001.0,N
1542259295.1,286046998.1,N
1542259296.0,286046998.1,N
1542259315.8,286047002.2,N
1542259335.7,286046999.9,N
1542259355.5,286047001.2,N
1542259375.3,286046998.3,N
1542259395.2,286046998.3,N
1542259415.0,286046998.6,N
1542259415.9,286046998.6,N
1542259435.7,286046999.2,N
1542259455.6,286046997.3,N
1542259475.4,286046996.8,N
1542259495.3,286046997.9,N
1542259515.1,286046997.9,N
1542259516.0,286046997.9,N
1542259535.8,286046997.9,N
1542259555.7,286046999.2,N
1542259575.5,286046997.3,N
1542259595.4,286046994.9,Y
1542259615.2,286046997.6,P
1542259635.0,286046996.7,P
1542259635.9,286046996.7,P
1542259655.8,286046997.8,N
1542259675.6,286046997.9,N
1542259695.4,286046997.0,Y
1542259715.3,286046999.5,P
1542259735.1,286046996.6,P
1542259755.9,286046996.8,N
1542259775.7,286046997.0,N
1542259795.5,286046996.6,Y
1542259815.4,286046998.5,P
1542259835.2,286047001.0,N
1542259855.0,286046998.5,N
1542259855.9,286046998.5,N
1542259875.8,286046998.8,N
1542259895.6,286046998.8,N
1542259915.5,286047000.7,N
1542259935.3,286047001.0,N
1542259955.1,286046998.4,N
1542259975.9,286046997.0,N
1542259995.7,286046998.3,N
1542260015.5,286047001.1,N
1542260035.4,286046999.0,N
1542260055.2,286046999.3,N
1542260075.1,286046998.8,N
1542260076.0,286046998.8,N
1542260095.8,286046997.2,N
1542260115.6,286046998.9,N
1542260135.5,286046998.2,N
1542260155.3,286046998.3,N
1542260175.2,286046996.5,Y
1542260195.9,286047000.7,P
1542260215.7,286047000.6,N
1542260235.6,286047000.7,N
1542260255.4,286046998.6,N
1542260275.2,286046998.1,N
1542260295.1,286046998.2,N
1542260296.0,286046998.2,N
1542260315.8,286046998.1,N
1542260335.7,286046998.9,N
1542260355.5,286046996.9,N
1542260375.3,286046998.5,N
1542260395.2,286046999.2,N
1542260415.0,286046999.6,N
1542260415.9,286046999.6,N
1542260435.7,286046999.5,N
1542260455.6,286046996.8,Y
1542260475.4,286047000.4,P
1542260495.3,286046999.6,N
1542260515.1,286047000.1,N
1542260535.8,286047001.0,N
1542260555.7,286047002.7,Y
1542260575.5,286047001.0,P
1542260595.4,286047000.9,N
1542260615.2,286047000.7,N
1542260635.0,286046998.4,Y
1542260635.9,286046998.4,P
1542260655.8,286046998.9,N
1542260675.6,286046999.4,N
1542260695.5,286046999.2,N
1542260715.3,286046999.6,N
1542260735.1,286046999.5,N
1542260755.9,286047000.4,N
1542260775.7,286047000.5,N
1542260795.5,286047000.8,N
1542260815.4,286047000.8,N
1542260835.2,286046998.1,N
1542260855.1,286046998.4,N
1542260856.0,286046998.4,N
1542260875.8,286047001.1,N
1542260895.6,286047000.1,N
1542260915.5,286047001.0,N
1542260935.3,286046999.9,N
1542260955.2,286047000.2,N
1542260975.9,286046999.7,N
1542260995.7,286047002.4,N
1542261015.6,286047001.9,N
1542261035.4,286047002.6,N
1542261055.2,286047000.8,N
1542261075.1,286047000.6,N
1542261076.0,286047000.6,N
1542261095.8,286047001.1,N
1542261115.7,286046998.1,N
1542261135.5,286046999.9,N
1542261155.3,286046999.9,N
1542261175.2,286047000.6,N
1542261195.0,286047000.7,N
1542261195.9,286047000.7,N
1542261215.8,286046999.7,N
1542261235.6,286047000.2,N
1542261255.4,286047002.3,N
1542261275.3,286047002.5,N
1542261295.1,286047002.7,N
1542261315.8,286047002.3,N
1542261335.7,286047001.7,N
1542261355.5,286047004.0,Y
1542261375.4,286047003.2,P
1542261395.2,286047004.1,P
1542261415.0,286047002.1,N
1542261415.9,286047002.1,N
1542261435.8,286047004.3,Y
1542261455.6,286047002.6,P
1542261475.5,286047002.1,P
1542261495.3,286047000.2,N
1542261515.1,286047002.6,N
1542261535.9,286047002.4,N
1542261555.7,286047000.9,N
1542261575.6,286046998.4,N
1542261595.4,286046998.1,N
